Lapse_Rate
6.8 6.8 6.8 6.9 6.8 6.7 7.1 8.5 8.4 8.4 8.9 8.9 8.6 8.7 8.8 8.8 8.9 8.5 8.0 8.1 8.1 7.4 7.8 7.8 7.9 7.7 7.6 7.6 7.6 7.5 7.4 7.4 7.4 7.2 7.4 7.3 7.2 7.3 7.1 7.1 7.0 7.0 7.1 7.1 6.9 7.1 7.2 7.1 7.0
6.8 6.7 6.7 6.9 6.5 6.7 7.4 8.5 8.0 8.9 9.1 8.7 8.7 8.6 8.4 8.6 8.6 8.6 8.0 7.9 7.9 7.4 7.4 7.7 7.8 7.6 7.5 7.5 7.5 7.5 7.4 7.3 7.3 7.4 7.2 7.1 7.2 7.2 7.0 7.1 7.1 7.2 7.2 7.1 7.1 7.1 7.2 7.1 7.0
6.8 6.8 6.7 6.8 7.0 7.1 7.8 8.8 9.1 9.3 9.1 8.7 8.6 8.3 8.1 8.3 8.3 8.1 7.9 7.5 7.6 7.4 7.3 7.3 7.5 7.4 7.4 7.3 7.4 7.4 7.4 7.3 7.3 7.2 7.3 7.2 7.2 7.3 7.2 7.1 7.2 7.2 7.2 7.1 7.1 7.2 7.2 7.1 7.1
6.8 6.8 6.8 6.8 7.5 8.1 8.2 9.0 9.3 9.3 8.6 8.4 7.9 8.1 8.1 7.9 7.5 7.4 7.4 7.4 7.7 7.8 7.5 7.3 7.3 7.5 7.5 7.5 7.6 7.5 7.4 7.3 7.2 7.1 7.0 7.2 7.1 7.2 7.2 7.1 7.0 7.1 7.2 7.1 7.2 7.1 7.0 6.9 6.9
7.0 6.6 6.7 7.0 7.8 8.0 8.8 9.5 9.2 9.0 8.7 8.4 7.9 7.8 7.9 7.7 7.5 7.5 7.5 7.5 7.3 7.7 7.5 7.6 7.7 7.7 7.7 7.8 7.7 7.6 7.5 7.5 7.3 7.1 7.0 7.1 7.2 7.1 7.1 7.0 7.0 7.1 7.1 7.1 7.1 6.9 6.9 6.8 6.8
6.7 6.6 6.6 6.9 7.6 7.7 8.6 9.7 9.6 9.3 9.0 8.5 7.9 7.5 7.4 7.7 7.4 7.5 7.5 7.6 7.6 8.0 7.8 8.0 7.7 7.7 7.6 7.5 7.4 7.4 7.4 7.3 7.3 7.2 7.0 7.2 7.4 7.1 7.0 6.9 6.9 7.0 7.0 7.1 6.9 6.7 6.8 6.7 6.8
7.1 6.8 6.9 7.2 7.7 8.5 9.1 9.4 9.4 9.0 8.7 8.3 7.7 7.4 7.2 7.7 7.6 7.6 7.7 7.9 7.9 8.1 8.2 8.2 7.9 7.6 7.4 7.3 7.3 7.3 7.4 7.4 7.3 7.2 7.4 6.8 7.0 7.0 6.9 6.7 6.8 6.9 7.0 6.9 6.8 6.7 6.7 6.6 6.7
6.4 6.5 6.9 7.4 7.8 8.2 8.6 8.7 8.7 8.4 8.4 8.0 7.5 7.1 7.3 8.3 7.7 7.7 8.0 8.2 8.4 8.4 8.4 8.4 8.1 7.8 7.5 7.3 7.2 7.1 7.1 7.1 7.1 7.2 7.0 7.0 6.7 6.9 6.8 6.7 6.7 6.8 6.9 6.8 6.7 6.6 6.7 6.5 6.6
6.8 6.7 7.0 7.8 7.8 8.5 9.0 8.7 8.3 7.7 8.2 7.9 7.8 7.5 7.6 7.8 7.7 7.7 8.0 8.3 8.4 8.5 8.5 8.3 8.0 7.8 7.4 7.2 7.0 6.9 6.8 6.7 7.0 7.1 7.0 6.7 6.8 6.9 6.8 6.7 6.6 6.7 6.7 6.8 6.9 6.9 6.8 6.6 6.5
6.7 6.8 7.3 7.7 7.8 7.8 8.7 8.0 8.2 8.0 8.1 7.9 7.9 7.8 7.5 7.5 7.5 7.7 7.8 8.0 8.3 8.4 8.4 8.3 8.1 8.0 7.7 7.4 7.0 7.0 6.9 6.8 6.6 6.7 6.7 6.5 6.6 6.7 6.6 6.7 6.7 6.9 7.1 7.1 6.9 6.7 6.6 6.5 6.5
7.1 7.1 7.3 7.7 7.8 7.8 7.8 8.3 8.3 8.3 8.3 8.1 7.8 7.6 7.6 7.6 7.5 7.5 7.7 7.9 8.0 7.9 8.2 8.3 8.1 8.1 7.9 7.7 7.4 7.1 7.0 6.8 6.7 6.6 6.5 6.6 6.5 6.6 6.7 6.9 7.0 6.9 6.8 6.9 6.7 6.7 6.6 6.5 6.5
6.9 7.3 7.5 7.4 8.0 8.1 7.6 8.1 8.4 8.6 8.0 8.2 8.0 7.6 7.4 7.6 7.3 7.3 7.5 7.7 7.9 7.9 7.9 7.8 7.9 8.0 7.7 7.7 7.5 7.0 6.8 6.7 6.5 6.4 6.4 6.7 6.7 6.8 6.8 6.9 6.9 7.0 6.9 6.8 6.8 6.7 6.6 6.5 6.5
7.0 7.4 7.6 7.5 7.5 7.6 7.7 7.7 8.0 8.5 8.2 8.0 7.7 7.7 7.8 7.8 7.8 7.7 7.7 7.8 7.8 7.8 7.8 7.7 7.5 7.5 7.6 7.5 7.0 6.9 6.8 6.7 6.4 6.4 6.5 6.6 6.7 6.8 6.9 6.9 6.9 6.9 6.9 6.8 6.7 6.6 6.5 6.4 6.4
6.4 6.9 7.5 7.6 7.6 7.7 7.7 7.7 7.5 8.0 8.5 8.2 7.7 7.6 7.8 7.9 7.7 7.5 7.8 8.0 8.0 7.8 7.7 7.6 7.4 7.2 7.3 7.0 6.8 6.7 6.6 6.6 6.5 6.6 6.8 7.0 7.1 7.0 7.0 6.9 6.9 7.0 7.0 6.9 6.8 6.7 6.6 6.6 6.5
6.5 6.3 7.1 7.8 8.1 8.0 8.0 7.3 7.6 7.9 8.3 8.2 7.7 7.6 7.9 7.9 7.6 7.6 7.7 7.9 7.8 7.7 7.6 7.4 7.1 7.1 7.0 6.7 6.5 6.4 6.4 6.4 6.6 6.8 6.9 6.9 7.0 7.2 7.2 7.2 7.2 7.2 7.1 6.9 6.8 6.8 6.7 6.6 6.4
6.7 6.3 6.8 8.0 7.9 8.1 7.9 7.6 7.7 7.7 8.4 8.5 8.3 7.9 7.3 7.4 7.1 6.9 7.5 7.9 7.8 7.3 7.2 7.1 7.0 6.8 6.9 6.8 6.4 6.3 6.5 6.7 6.9 7.0 7.0 7.1 7.2 7.2 7.1 7.1 7.1 7.1 7.1 7.0 6.8 6.7 6.6 6.5 6.3
7.0 6.4 7.1 7.1 7.9 7.9 8.1 7.8 7.9 7.8 7.8 8.5 8.2 8.1 8.0 7.3 6.9 6.4 6.7 7.2 7.3 7.1 7.0 7.1 6.9 7.0 6.8 6.5 6.2 6.4 6.6 6.9 7.0 7.0 7.1 7.1 7.1 7.1 7.1 7.1 7.2 7.2 7.1 6.9 6.7 6.6 6.6 6.3 6.2
6.8 7.2 7.2 7.2 8.2 7.9 7.6 7.5 8.1 8.2 8.1 8.2 8.3 8.2 8.1 8.1 7.8 7.7 7.1 7.0 6.7 7.0 7.0 6.9 6.7 6.7 6.5 6.5 6.5 6.5 6.7 6.7 6.8 6.8 6.8 6.8 7.0 7.0 7.1 7.2 7.2 7.1 7.0 6.8 6.6 6.3 6.3 6.3 6.3
7.2 7.2 7.3 7.2 8.3 8.1 8.2 8.1 8.1 8.5 8.4 8.4 8.3 7.9 7.6 7.2 7.3 7.1 7.2 7.1 7.4 7.6 7.2 6.8 6.6 6.4 6.2 6.1 6.2 6.4 6.4 6.5 6.5 6.7 6.9 7.0 7.1 7.2 7.3 7.2 7.2 7.2 7.1 6.9 6.6 6.5 6.4 6.4 6.3
7.6 7.5 7.5 7.5 7.6 8.0 8.1 8.2 8.2 8.4 8.8 8.8 8.8 8.5 8.2 7.5 6.7 6.8 7.3 7.8 8.0 7.9 7.7 7.1 6.3 6.1 6.1 6.1 6.3 6.4 6.4 6.5 6.8 7.1 7.2 7.2 7.3 7.3 7.2 7.2 7.1 7.1 6.9 6.6 6.5 6.5 6.6 6.6 6.4
7.4 7.6 7.5 7.6 7.6 7.5 7.7 7.4 7.8 8.0 8.1 8.3 8.5 8.7 8.2 7.8 7.1 7.0 7.4 8.2 8.0 7.3 7.0 6.8 6.4 6.6 6.6 6.6 6.5 6.4 6.5 6.8 7.0 7.1 7.0 7.1 7.1 7.2 7.2 7.2 7.0 6.9 6.7 6.5 6.7 6.8 6.7 6.6 6.5
7.2 7.7 7.7 7.6 7.5 6.9 7.5 6.8 6.5 7.3 8.1 8.4 8.6 9.2 8.6 8.0 7.0 6.9 7.4 8.4 7.6 7.3 7.5 7.3 7.0 7.2 6.8 6.6 6.7 6.5 6.6 6.9 6.9 6.8 6.9 6.9 7.0 7.0 6.9 6.9 6.8 6.7 6.8 6.9 6.8 6.7 6.7 6.8 6.6
7.2 7.2 7.4 7.4 7.6 6.8 6.4 7.8 6.7 7.2 8.3 8.4 8.7 8.9 9.2 8.6 8.1 7.7 7.7 7.8 7.6 7.5 7.5 7.4 7.3 6.8 6.6 6.7 6.4 6.5 6.6 6.6 6.6 6.8 6.8 6.8 6.8 6.8 6.8 6.8 6.8 6.9 6.9 6.9 6.8 6.8 6.7 6.6 6.6
7.5 7.4 7.3 7.2 7.3 6.4 6.6 7.9 6.5 7.5 8.5 8.7 8.9 9.0 8.9 8.8 8.2 7.9 7.9 7.7 7.5 7.7 7.6 7.4 7.2 6.9 6.6 6.5 6.4 6.4 6.4 6.5 6.5 6.6 6.7 6.7 6.8 6.8 6.9 6.9 6.9 6.9 6.9 6.8 6.7 6.7 6.7 6.7 6.7
7.7 7.7 6.7 6.2 6.2 6.5 7.0 7.6 7.4 7.9 8.2 8.7 9.0 9.0 8.7 8.5 8.4 8.1 8.1 7.9 7.7 7.6 7.6 7.3 7.1 6.8 6.4 6.1 6.1 6.1 6.2 6.4 6.5 6.7 6.8 6.9 6.8 6.9 6.9 6.9 7.0 7.0 6.9 6.8 6.7 6.7 6.8 6.7 6.6
7.9 8.4 7.7 7.3 6.5 7.0 7.4 7.3 7.7 8.6 8.6 8.5 8.2 8.1 8.2 7.9 8.0 8.3 8.3 7.8 7.7 7.8 7.8 7.4 7.3 7.1 6.5 6.3 6.2 6.3 6.3 6.5 6.7 6.9 7.0 6.9 7.0 7.1 7.1 7.1 7.1 7.1 6.9 6.8 6.8 6.8 6.7 6.6 6.5
7.5 8.4 9.0 9.1 8.8 8.5 8.3 7.8 7.7 8.5 8.5 7.8 7.7 8.0 7.9 7.9 8.1 8.0 8.1 7.7 7.9 7.8 7.6 7.5 7.6 7.3 6.9 6.6 6.4 6.4 6.5 6.8 7.0 7.1 7.2 7.3 7.3 7.4 7.2 7.1 7.0 6.8 6.7 6.6 6.7 6.7 6.6 6.5 6.3
8.1 8.3 8.4 9.0 8.4 8.1 8.3 8.6 8.6 8.5 8.3 8.0 7.7 7.4 7.0 7.3 7.3 7.5 7.6 7.9 8.2 7.9 7.8 7.6 7.7 7.6 7.2 6.8 6.6 6.6 6.8 6.8 7.1 7.3 7.3 7.4 7.3 7.3 7.2 7.0 6.8 6.6 6.6 6.6 6.7 6.7 6.5 6.2 6.0
6.9 7.9 8.5 8.5 8.3 7.6 7.6 8.1 8.6 8.6 8.5 8.0 7.7 6.8 6.4 6.7 7.0 7.4 7.6 7.9 7.8 7.7 7.9 7.8 7.9 7.9 7.5 6.9 6.8 6.9 7.1 7.2 7.5 7.5 7.4 7.3 7.4 7.3 7.2 7.0 6.8 6.7 6.7 6.7 6.6 6.4 6.2 5.9 5.9
7.8 7.6 7.8 8.2 7.1 6.9 6.5 7.0 8.1 7.9 8.0 7.9 7.8 7.4 7.0 6.8 7.3 7.5 7.5 7.4 7.3 7.7 7.8 7.9 7.9 8.0 7.6 7.2 7.2 7.2 7.4 7.6 7.7 7.6 7.4 7.4 7.4 7.3 7.1 6.8 6.9 6.8 6.7 6.6 6.4 6.1 5.8 5.8 5.8
Wind_Speed
7 5 3 2 3 2 7 11 6 6 3 4 8 8 12 6 6 7 2 6 13 11 15 17 19 22 20 18 18 18 18 18 18 18 19 19 18 17 17 18 19 18 16 14 13 13 12 11 10
5 4 2 2 3 3 9 13 7 4 4 4 10 13 8 6 5 7 2 5 10 13 16 18 21 22 23 23 22 20 20 21 21 19 19 17 16 16 15 16 15 13 13 13 11 11 9 9 9
3 4 2 4 3 8 8 11 7 5 5 3 6 8 5 4 8 4 2 2 12 11 18 19 21 20 23 23 23 21 21 22 22 20 20 18 17 17 16 15 13 12 11 10 11 10 10 10 10
1 4 4 1 11 16 15 18 4 4 4 7 12 9 6 9 4 7 3 10 13 10 20 18 20 21 23 23 23 23 24 22 23 20 21 18 17 16 16 16 14 13 12 11 11 11 11 11 11
1 2 2 4 11 13 19 11 5 5 5 4 7 6 6 4 12 8 10 12 13 10 18 18 21 23 24 24 24 23 22 22 21 21 20 17 18 16 15 15 14 12 11 12 11 11 11 11 11
2 3 3 9 14 16 15 4 5 3 3 7 7 8 5 11 14 9 11 11 10 11 17 17 22 25 21 21 21 21 20 20 20 19 19 17 18 15 14 13 13 11 11 11 12 11 11 11 11
6 2 7 8 15 18 12 2 5 5 8 6 11 6 8 9 12 11 11 11 10 12 13 14 17 23 20 18 19 18 18 18 16 16 15 17 19 13 14 11 10 10 9 9 10 10 9 11 12
4 3 7 7 12 12 4 5 4 5 3 5 4 7 8 13 14 11 10 10 9 8 8 11 13 15 15 14 16 16 14 14 14 10 11 13 18 12 13 9 7 8 7 6 8 9 12 13 14
4 1 6 12 12 5 5 5 4 2 7 7 7 5 18 21 18 13 11 9 9 8 8 9 10 11 11 11 14 16 16 13 10 7 6 8 9 10 5 6 5 5 11 4 10 10 15 17 17
6 5 10 14 8 7 2 5 4 2 3 7 15 19 20 20 16 16 13 11 8 8 6 8 9 11 11 10 11 11 11 9 9 11 9 9 10 7 3 3 4 2 14 12 13 16 14 13 13
8 9 10 14 7 5 6 9 5 3 5 11 16 18 19 18 15 15 14 12 10 8 5 6 8 12 11 10 8 9 13 14 11 11 8 9 11 11 10 11 12 13 12 13 14 15 14 13 11
7 10 7 6 8 5 4 3 10 5 1 12 24 25 21 19 17 16 16 14 12 9 7 7 6 7 10 10 8 11 10 12 11 12 16 12 9 10 9 10 12 13 12 12 12 12 13 13 12
8 8 12 10 10 9 8 5 7 9 5 21 22 22 21 19 19 17 17 16 15 12 8 7 6 5 7 8 9 11 10 12 13 13 15 12 10 5 9 9 11 9 11 10 9 10 9 10 11
8 13 10 9 12 11 10 7 5 9 7 20 22 20 20 20 20 13 18 15 14 12 9 7 7 5 10 7 8 7 13 14 16 13 13 12 11 8 9 8 7 9 10 13 11 8 6 6 8
10 12 11 15 17 13 12 11 8 8 6 14 17 18 18 17 15 22 19 17 16 11 9 7 6 7 7 8 8 9 12 14 12 12 13 13 14 10 11 7 5 8 12 15 14 12 11 5 8
12 7 5 16 16 15 10 16 8 2 8 12 11 12 15 13 18 18 18 16 15 13 10 8 8 7 7 7 7 9 13 13 13 14 13 12 14 12 12 6 5 9 14 12 5 4 4 4 4
6 9 11 8 10 6 3 3 6 9 9 9 10 10 10 14 15 15 14 17 15 13 11 8 8 7 7 7 9 10 14 12 13 14 13 12 13 13 12 8 9 11 10 7 4 3 3 3 5
7 8 6 6 8 12 8 8 9 9 9 11 10 11 15 17 17 18 18 15 14 12 11 10 7 7 7 5 5 6 7 9 15 13 13 11 11 13 9 9 10 9 4 4 3 5 5 4 5
9 10 6 7 15 7 12 10 11 8 7 10 12 15 16 19 20 20 18 16 16 15 14 12 9 7 5 3 4 5 4 5 4 10 13 10 10 12 11 8 8 8 5 5 6 3 5 8 7
7 9 10 7 10 9 9 15 9 8 8 9 13 15 19 16 20 18 18 19 17 15 14 13 11 9 6 6 4 4 6 4 5 8 11 10 11 9 10 8 5 7 4 6 6 6 3 4 7
8 8 9 12 8 7 6 16 10 11 11 11 11 20 23 24 24 21 21 18 17 17 16 14 11 11 4 7 8 6 7 6 4 3 4 6 10 12 12 12 10 7 5 4 6 5 6 4 4
14 8 13 12 5 7 4 14 16 11 13 19 20 11 20 22 22 19 20 18 17 14 14 14 12 10 8 9 9 11 5 5 4 4 4 5 11 12 14 13 12 9 7 6 5 5 5 4 4
17 9 11 5 6 7 1 5 23 5 12 15 5 9 22 25 25 22 19 17 14 12 9 11 11 8 7 6 7 5 6 6 4 6 7 6 7 11 12 13 11 8 7 6 6 6 6 4 4
9 5 8 5 2 11 10 7 21 16 12 2 4 9 22 23 20 18 15 16 13 11 12 10 9 7 7 7 8 9 12 9 7 5 5 4 4 4 10 11 11 11 9 5 5 6 6 5 5
11 2 6 4 4 12 16 13 15 13 2 10 11 14 18 20 20 19 19 15 15 14 12 11 12 8 7 6 7 8 9 9 8 7 5 7 4 3 5 8 6 5 7 8 9 6 6 5 4
8 15 9 5 5 9 10 8 7 8 14 9 5 10 14 16 17 19 19 16 17 15 14 13 11 9 8 7 7 7 8 5 5 5 5 5 4 4 7 8 10 10 9 12 11 4 4 5 5
8 6 7 10 12 8 7 8 9 3 13 10 5 12 12 13 15 16 15 15 16 15 14 13 14 11 8 8 7 7 6 7 7 8 8 5 6 4 8 10 8 11 12 11 11 6 6 6 7
5 6 9 4 13 20 6 4 6 4 6 6 7 4 6 7 13 14 13 15 13 14 12 12 14 13 8 8 7 6 7 8 7 7 7 7 6 7 7 6 8 9 11 12 10 7 8 9 6
10 8 5 5 3 8 13 6 7 9 8 6 3 7 6 4 7 14 13 15 16 14 14 13 13 11 10 8 7 7 7 7 7 8 7 7 6 7 8 7 8 7 7 9 9 8 8 10 8
14 15 10 2 6 2 2 6 5 3 1 4 8 13 11 10 12 11 16 16 15 15 14 13 13 13 9 8 7 7 7 8 8 7 7 7 7 9 9 10 8 8 7 7 8 9 8 8 8
Wind_Direction
325 270 140 360 38 99 259 258 263 357 60 359 18 73 106 49 70 130 239 304 110 96 90 97 94 98 103 102 99 98 97 96 94 93 90 83 81 77 74 71 69 68 64 59 52 44 33 24 21
320 305 113 280 117 312 277 249 246 97 158 137 73 115 48 82 72 119 132 328 101 103 91 95 91 93 95 93 94 96 101 98 93 88 87 88 82 80 80 73 72 72 67 56 48 43 36 26 23
279 205 82 156 201 227 257 278 241 154 80 59 104 56 67 83 113 106 181 132 92 88 91 88 94 94 95 94 92 97 90 87 89 89 87 84 83 79 78 74 70 68 62 56 47 35 28 21 20
283 1 335 142 255 257 248 271 231 114 69 79 104 78 77 34 104 122 190 113 97 93 94 93 95 98 97 101 100 97 94 91 88 92 89 86 83 79 76 74 66 62 58 50 39 27 20 11 4
109 315 241 268 268 270 276 266 93 52 353 182 104 119 82 51 101 102 96 96 104 99 94 91 94 92 94 97 97 97 95 94 94 92 92 87 85 76 72 69 62 52 47 43 31 15 10 357 352
311 116 313 278 277 285 295 174 104 60 345 139 96 108 84 124 116 103 100 95 93 100 96 98 99 93 93 96 97 96 99 101 102 105 103 101 87 82 72 64 59 49 40 36 23 2 0 348 342
180 173 245 264 287 300 318 94 72 52 41 8 119 74 120 137 120 114 106 100 91 95 96 94 96 99 98 95 98 101 102 102 104 106 113 109 104 95 80 66 62 52 46 36 17 360 354 353 345
187 133 268 259 282 301 0 359 93 66 80 86 134 142 163 166 132 116 114 112 105 101 104 104 101 104 107 116 117 115 109 110 112 113 109 108 101 106 89 83 75 64 54 30 1 345 358 2 358
225 344 268 271 270 246 15 26 347 120 92 61 10 118 126 140 134 123 126 131 127 130 130 124 120 121 122 122 127 123 116 109 108 107 130 133 119 104 100 101 91 41 35 3 1 20 37 22 14
169 195 235 249 259 300 13 355 320 122 155 71 79 97 117 133 144 142 149 146 143 140 137 142 143 145 153 142 145 138 122 120 83 59 80 90 88 52 116 95 76 38 43 29 23 34 26 18 10
263 235 239 262 281 300 328 335 330 280 264 152 155 144 141 143 153 158 166 166 160 153 156 163 158 166 172 152 170 151 124 106 87 55 40 60 88 67 66 58 54 45 36 26 30 26 16 8 12
331 293 260 281 311 319 282 323 323 11 8 141 150 150 149 160 165 170 167 164 151 155 159 183 187 178 209 155 157 139 123 109 86 59 45 72 71 62 57 56 55 48 31 25 29 16 7 5 7
309 312 325 332 334 311 306 244 241 298 130 134 142 151 160 169 175 178 169 153 152 157 164 187 178 164 120 105 117 98 94 90 87 66 51 71 64 69 68 65 59 55 36 29 22 12 6 360 1
309 314 311 313 297 289 289 271 207 262 140 145 152 164 168 175 179 152 148 151 152 151 161 176 151 127 110 105 100 107 100 95 85 74 63 67 63 82 75 58 42 31 38 31 24 15 8 355 17
311 305 303 279 267 263 247 274 244 234 148 151 169 169 174 179 154 149 150 150 147 149 154 150 127 102 104 109 106 108 115 106 98 85 68 57 49 71 83 68 35 11 51 38 25 13 11 10 16
288 285 263 272 267 253 186 249 229 233 203 171 163 159 173 178 145 147 147 143 143 138 128 128 113 115 108 110 111 106 112 113 109 96 81 62 50 75 82 66 28 32 58 43 24 12 1 15 19
244 258 276 303 321 18 79 194 229 159 144 174 175 166 132 109 116 133 132 136 134 129 127 115 113 110 105 100 106 103 103 98 99 92 85 64 52 62 83 65 32 67 61 39 21 2 31 21 359
272 309 289 291 302 339 323 284 277 213 176 184 168 166 144 141 144 135 133 127 128 122 112 110 109 113 109 108 102 93 93 89 91 84 78 69 59 61 86 73 51 77 66 41 19 24 18 27 347
282 291 298 301 307 315 288 270 275 271 220 203 186 173 162 158 153 142 141 127 125 124 125 125 130 146 140 138 134 121 124 108 88 91 92 80 69 69 72 75 58 68 68 60 37 27 37 30 7
305 302 285 271 261 283 295 289 266 271 255 207 200 186 171 150 152 147 132 132 134 137 138 142 152 173 180 165 159 138 135 114 118 110 105 99 83 86 77 79 62 63 67 51 43 44 39 38 30
277 275 288 275 287 281 292 287 286 276 260 253 244 189 178 157 153 145 141 143 143 148 148 152 163 188 168 129 118 110 110 113 108 105 100 97 91 82 76 70 69 66 63 68 51 46 44 50 27
282 268 283 293 318 279 52 297 276 277 283 282 246 199 173 151 146 143 143 147 149 151 149 153 164 138 148 134 131 146 140 149 148 147 126 110 96 83 81 76 78 78 65 60 58 51 55 63 43
270 297 300 285 307 313 182 276 282 298 272 271 210 140 151 151 150 151 149 147 146 143 133 127 129 128 112 150 141 129 124 123 133 129 122 108 93 89 89 84 79 71 71 71 80 63 68 64 77
279 315 305 292 250 274 286 223 280 277 254 21 99 108 142 146 143 145 142 138 136 131 130 125 116 107 100 102 122 130 134 141 133 134 136 134 110 89 85 88 82 78 73 77 90 84 85 83 91
239 208 279 283 205 252 278 261 249 305 301 142 144 131 142 148 147 148 148 146 147 142 136 125 125 126 127 118 126 136 140 137 146 149 143 130 112 93 88 88 79 78 76 75 85 85 81 69 82
260 220 216 228 244 262 271 269 275 131 142 132 76 113 139 150 155 154 157 150 151 144 139 134 137 133 143 149 146 132 132 139 135 135 125 120 121 118 108 94 84 73 74 80 73 76 84 72 63
305 240 225 262 269 277 252 290 293 44 69 30 144 144 148 142 154 154 152 149 149 149 151 147 144 146 153 154 146 147 137 122 121 115 116 121 118 117 112 103 89 72 62 81 76 64 59 67 59
251 286 298 295 265 260 239 255 251 106 98 71 68 66 148 134 134 148 152 151 150 152 156 146 148 152 150 145 144 143 134 128 121 116 116 116 123 110 106 92 88 82 74 69 68 66 59 62 50
306 312 333 316 289 276 265 260 222 169 171 209 55 23 326 110 155 155 163 160 153 153 160 152 145 141 143 144 146 134 134 122 113 119 120 120 120 120 107 96 83 76 80 78 76 71 71 69 60
287 282 287 211 278 270 280 259 326 59 259 18 183 202 210 192 178 168 167 158 157 157 162 149 145 144 147 145 139 137 130 123 122 119 119 118 114 103 104 98 89 85 79 84 90 86 75 81 77